Big Bear City, CA

9:42 PM PDT on October 19, 2017 (GMT -0700)
Big Bear City

Weather History for KL35 - September, 2012

Change the Weather History Date:

Sunday, September 30, 2012

  Actual Average (KBUO) Record (KBUO)
Temperature  
Mean Temperature 54 °F -  
Max Temperature 73 °F 81 °F 98 °F (1999)
Min Temperature 35 °F 55 °F 53 °F (1996)
Degree Days  
Heating Degree Days 11    
Growing Degree Days 4 (Base 50)    
Moisture  
Dew Point 25 °F    
Average Humidity 39    
Maximum Humidity 75    
Minimum Humidity 13    
Precipitation  
Precipitation 0.00 in - - ()
Sea Level Pressure  
Sea Level Pressure 30.36 in    
Wind  
Wind Speed 2 mph (NE)    
Max Wind Speed 15 mph    
Max Gust Speed 21 mph    
Visibility 10 miles    
Events      
Averages and records for this station are not official NWS values.
T = Trace of Precipitation, MM = Missing Value Source: NWS Daily Summary

Daily Weather History Graph

Daily Weather History Graph

Search for Another Location

Airport or City:

Trip Planner

Search our weather history database for the weather conditions in past years. The results will help you decide how hot, cold, wet, or windy it might be!

Date:

Astronomy

Sep. 30, 2012 Rise Set
Actual Time 6:41 AM PDT 6:32 PM PDT
Civil Twilight 6:16 AM PDT 6:57 PM PDT
Nautical Twilight 5:47 AM PDT 7:26 PM PDT
Astronomical Twilight 5:18 AM PDT 7:55 PM PDT
Moon 6:43 PM PDT (9/30) 7:12 AM PDT (9/30)
Length of Visible Light 12h 40m
Length of Day
11h 50m
Full, 100% of the Moon is Illuminated
Sep 30
Full
Oct 8
Last Quarter
Oct 15
New
Oct 21
First Quarter
Oct 29
Full

Hourly Weather History & Observations

Time (PDT) Temp. Dew Point Humidity Pressure Visibility Wind Dir Wind Speed Gust Speed Precip Events Conditions
12:15 AM 41.0 °F 26.6 °F 57% 30.35 in 10.0 mi Calm Calm - N/A   Clear
12:35 AM 41.0 °F 26.6 °F 57% 30.35 in 10.0 mi Calm Calm - N/A   Clear
12:55 AM 41.0 °F 26.6 °F 57% 30.35 in 10.0 mi Calm Calm - N/A   Clear
1:15 AM 39.2 °F 26.6 °F 61% 30.35 in 10.0 mi Calm Calm - N/A   Clear
1:35 AM 39.2 °F 26.6 °F 61% 30.35 in 10.0 mi Calm Calm - N/A   Clear
1:55 AM 39.2 °F 26.6 °F 61% 30.35 in 10.0 mi Calm Calm - N/A   Clear
2:15 AM 39.2 °F 26.6 °F 61% 30.35 in 10.0 mi Calm Calm - N/A   Clear
2:35 AM 37.4 °F 26.6 °F 65% 30.34 in 10.0 mi Calm Calm - N/A   Clear
2:55 AM 37.4 °F 26.6 °F 65% 30.34 in 10.0 mi Calm Calm - N/A   Clear
3:15 AM 37.4 °F 26.6 °F 65% 30.34 in 10.0 mi Calm Calm - N/A   Clear
3:35 AM 37.4 °F 26.6 °F 65% 30.34 in 10.0 mi Calm Calm - N/A   Clear
3:55 AM 37.4 °F 26.6 °F 65% 30.34 in 10.0 mi Calm Calm - N/A   Clear
4:15 AM 37.4 °F 26.6 °F 65% 30.34 in 10.0 mi Calm Calm - N/A   Clear
4:35 AM 37.4 °F 26.6 °F 65% 30.34 in 10.0 mi Calm Calm - N/A   Clear
4:55 AM 37.4 °F 28.4 °F 70% 30.35 in 10.0 mi Calm Calm - N/A   Clear
5:15 AM 37.4 °F 28.4 °F 70% 30.35 in 10.0 mi Calm Calm - N/A   Clear
5:35 AM 35.6 °F 28.4 °F 75% 30.35 in 10.0 mi Calm Calm - N/A   Clear
5:55 AM 35.6 °F 28.4 °F 75% 30.36 in 10.0 mi Calm Calm - N/A   Clear
6:15 AM 35.6 °F 28.4 °F 75% 30.36 in 10.0 mi Calm Calm - N/A   Clear
6:35 AM 35.6 °F 26.6 °F 70% 30.36 in 10.0 mi Calm Calm - N/A   Clear
6:55 AM 35.6 °F 28.4 °F 75% 30.36 in 10.0 mi Calm Calm - N/A   Clear
7:15 AM 37.4 °F 28.4 °F 70% 30.37 in 10.0 mi Calm Calm - N/A   Clear
7:35 AM 39.2 °F 28.4 °F 65% 30.38 in 10.0 mi Calm Calm - N/A   Clear
7:55 AM 42.8 °F 32.0 °F 66% 30.38 in 10.0 mi Calm Calm - N/A   Clear
8:15 AM 46.4 °F 33.8 °F 62% 30.38 in 10.0 mi Calm Calm - N/A   Clear
8:35 AM 51.8 °F 35.6 °F 54% 30.38 in 10.0 mi Calm Calm - N/A   Clear
8:55 AM 55.4 °F 32.0 °F 41% 30.38 in 10.0 mi Calm Calm - N/A   Clear
9:15 AM 60.8 °F 32.0 °F 34% 30.39 in 10.0 mi Calm Calm - N/A   Clear
9:35 AM 62.6 °F 30.2 °F 30% 30.39 in 10.0 mi Calm Calm - N/A   Clear
9:55 AM 68.0 °F 28.4 °F 23% 30.39 in 10.0 mi ENE 9.2 mph - N/A   Clear
10:15 AM 68.0 °F 26.6 °F 21% 30.39 in 10.0 mi NE 6.9 mph - N/A   Clear
10:35 AM 68.0 °F 26.6 °F 21% 30.39 in 10.0 mi NNE 10.4 mph - N/A   Clear
10:55 AM 69.8 °F 26.6 °F 20% 30.39 in 10.0 mi ENE 8.1 mph - N/A   Clear
11:15 AM 69.8 °F 23.0 °F 17% 30.39 in 10.0 mi NNE 4.6 mph 17.3 mph N/A   Clear
11:35 AM 69.8 °F 23.0 °F 17% 30.39 in 10.0 mi ENE 10.4 mph 16.1 mph N/A   Clear
11:55 AM 71.6 °F 23.0 °F 16% 30.39 in 10.0 mi ENE 6.9 mph - N/A   Clear
12:15 PM 71.6 °F 23.0 °F 16% 30.39 in 10.0 mi ENE 8.1 mph 18.4 mph N/A   Clear
12:35 PM 71.6 °F 21.2 °F 15% 30.38 in 10.0 mi East 8.1 mph 16.1 mph N/A   Clear
12:55 PM 71.6 °F 21.2 °F 15% 30.38 in 10.0 mi NNE 8.1 mph - N/A   Clear
1:15 PM 71.6 °F 21.2 °F 15% 30.37 in 10.0 mi North 8.1 mph 11.5 mph N/A   Clear
1:35 PM 71.6 °F 19.4 °F 14% 30.36 in 10.0 mi NE 6.9 mph - N/A   Clear
1:55 PM 71.6 °F 19.4 °F 14% 30.35 in 10.0 mi ENE 8.1 mph 20.7 mph N/A   Clear
2:15 PM 73.4 °F 19.4 °F 13% 30.35 in 10.0 mi ENE 15.0 mph 18.4 mph N/A   Clear
2:35 PM 73.4 °F 19.4 °F 13% 30.35 in 10.0 mi ENE 9.2 mph 18.4 mph N/A   Clear
2:55 PM 71.6 °F 19.4 °F 14% 30.34 in 10.0 mi East 9.2 mph - N/A   Clear
3:15 PM 73.4 °F 19.4 °F 13% 30.34 in 10.0 mi NE 12.7 mph 17.3 mph N/A   Clear
3:35 PM 73.4 °F 19.4 °F 13% 30.34 in 10.0 mi NE 9.2 mph - N/A   Clear
3:55 PM 73.4 °F 19.4 °F 13% 30.33 in 10.0 mi ENE 8.1 mph - N/A   Clear
4:15 PM 71.6 °F 19.4 °F 14% 30.33 in 10.0 mi NE 5.8 mph - N/A   Clear
4:35 PM 71.6 °F 19.4 °F 14% 30.32 in 10.0 mi ENE 9.2 mph - N/A   Clear
4:55 PM 71.6 °F 19.4 °F 14% 30.33 in 10.0 mi NE 11.5 mph - N/A   Clear
5:15 PM 71.6 °F 19.4 °F 14% 30.33 in 10.0 mi NNE 8.1 mph - N/A   Clear
5:35 PM 71.6 °F 19.4 °F 14% 30.33 in 10.0 mi East 9.2 mph - N/A   Clear
5:55 PM 69.8 °F 19.4 °F 15% 30.33 in 10.0 mi NE 5.8 mph - N/A   Clear
6:15 PM 68.0 °F 21.2 °F 17% 30.33 in 10.0 mi NE 5.8 mph - N/A   Clear
6:35 PM 68.0 °F 21.2 °F 17% 30.33 in 10.0 mi NE 4.6 mph - N/A   Clear
6:55 PM 62.6 °F 23.0 °F 22% 30.34 in 10.0 mi Calm Calm - N/A   Clear
7:15 PM 59.0 °F 23.0 °F 25% 30.34 in 10.0 mi Calm Calm - N/A   Clear
7:35 PM 55.4 °F 23.0 °F 29% 30.35 in 10.0 mi Calm Calm - N/A   Clear
7:55 PM 53.6 °F 23.0 °F 30% 30.35 in 10.0 mi Calm Calm - N/A   Clear
8:15 PM 53.6 °F 23.0 °F 30% 30.36 in 10.0 mi Calm Calm - N/A   Clear
8:35 PM 51.8 °F 23.0 °F 33% 30.36 in 10.0 mi Calm Calm - N/A   Clear
9:15 PM 48.2 °F 23.0 °F 37% 30.37 in 10.0 mi Calm Calm - N/A   Clear
9:35 PM 48.2 °F 23.0 °F 37% 30.38 in 10.0 mi Calm Calm - N/A   Clear
9:55 PM 46.4 °F 23.0 °F 40% 30.37 in 10.0 mi Calm Calm - N/A   Clear
10:15 PM 46.4 °F 23.0 °F 40% 30.37 in 10.0 mi Calm Calm - N/A   Clear
10:35 PM 44.6 °F 23.0 °F 43% 30.37 in 10.0 mi Calm Calm - N/A   Clear
10:55 PM 44.6 °F 23.0 °F 43% 30.37 in 10.0 mi Calm Calm - N/A   Clear
11:15 PM 44.6 °F 23.0 °F 43% 30.36 in 10.0 mi Calm Calm - N/A   Clear
11:35 PM 42.8 °F 24.8 °F 49% 30.36 in 10.0 mi Calm Calm - N/A   Clear
11:55 PM 42.8 °F 24.8 °F 49% 30.36 in 10.0 mi Calm Calm - N/A   Clear